sat.trackr.live / text

‹ back to catalog

PEARL-1B

NORAD 68980 · 2026-100A

PAYLOAD ACTIVE UNKNOWN

§ Identity

Operator
Country
ROC
Launch date
2026-05-03
Launch site
AFWTR
Launch vehicle
Mass (kg)
RCS (m²)

External: N2YO · Heavens-Above · Gunter

§ Orbital elements

Epoch: 2026-05-25T03:38:23.169120Z

Period
96.61 min
Inclination
97.7390°
Eccentricity
0.0006180
Mean motion
14.90461576 rev/d
Perigee alt
592.2 km
Apogee alt
600.8 km
Semi-major
6,974.6 km
B*
1.6869e-4
RAAN
42.9944°
Arg perigee
213.7569°
Mean anomaly
146.3256°
Rev number
325

§ Raw data

PEARL-1B1 68980U 26100A   26145.15165705  .00001591  00000+0  16869-3 0  99962 68980  97.7390  42.9944 0006180 213.7569 146.3256 14.90461576  3258

JSON: /api/v1/satellites/68980 · /tle

For live sub-satellite position, see the globe view (requires WebGL).

§ Visibility from observer

Set your observer location to see the next 7 days of passes ≥ 10°. The values pass through the URL so the page stays shareable.

No JS? Fill the form by hand. The geolocation button needs JavaScript.